Location: Devore Heights
(34.2372°N, 117.4156°W)
Time: 16:01:53
(UTC+00:00)

Vanguard 1 Rocket - All Passes

Search period start: 13 September 2024 00:00
Search period end: 23 September 2024 00:00
Orbit: 649 x 4220 km, 34.3° (Epoch: 12 September)

Date Brightness Start Highest point End Pass type
(mag) Time Alt. Az. Time Alt. Az. Time Alt. Az.
13 Sep - 10:04:21 10° SSW 10:16:05 48° SE 10:36:54 10° ENE visible
13 Sep - 12:28:37 10° WSW 12:45:30 84° SSE 13:12:06 10° E visible
13 Sep - 14:56:40 10° W 15:19:33 88° S 15:45:00 10° ESE daylight
13 Sep - 17:27:37 10° WNW 17:52:59 63° SSW 18:13:14 10° SE daylight
13 Sep - 20:03:44 10° W 20:21:29 26° SW 20:34:46 10° S daylight
14 Sep - 08:54:17 10° S 09:03:29 30° SE 09:18:37 10° ENE visible
14 Sep - 11:16:18 10° WSW 11:30:13 73° SSE 11:54:55 10° ENE visible
14 Sep - 13:42:43 10° W 14:02:30 90° N 14:29:18 10° E daylight
14 Sep - 16:12:07 10° WNW 16:36:50 76° SSW 17:00:03 10° ESE daylight
14 Sep - 18:45:00 10° WNW 19:07:44 41° SW 19:24:55 10° SSE daylight
15 Sep - 07:46:40 10° SSE 07:51:47 14° ESE 07:58:22 10° E visible
15 Sep - 10:04:50 10° SW 10:16:13 56° SE 10:37:21 10° ENE visible
15 Sep - 12:29:33 10° WSW 12:46:03 88° S 13:12:38 10° E visible
15 Sep - 14:57:30 10° W 15:19:59 85° SSW 15:45:36 10° ESE daylight
15 Sep - 17:28:16 10° WNW 17:52:52 56° SW 18:13:20 10° SE daylight
15 Sep - 20:05:54 10° W 20:21:04 20° SW 20:33:13 10° SSW daylight
16 Sep - 08:54:20 10° SSW 09:03:28 37° SE 09:19:29 10° ENE visible
16 Sep - 11:17:08 10° WSW 11:30:40 79° SSE 11:55:19 10° ENE visible
16 Sep - 13:43:40 10° W 14:03:04 90° S 14:29:55 10° E daylight
16 Sep - 16:12:49 10° WNW 16:36:57 70° SSW 17:00:23 10° SE daylight
16 Sep - 18:46:04 10° WNW 19:07:21 34° SW 19:24:21 10° S daylight
17 Sep - 07:45:27 10° SSE 07:51:42 19° SE 08:00:45 10° E visible
17 Sep - 10:05:28 10° SW 10:16:31 63° SSE 10:37:45 10° ENE visible
17 Sep - 12:30:32 10° W 12:46:41 90° S 13:13:09 10° E visible
17 Sep - 14:58:20 10° W 15:20:19 81° SSW 15:46:04 10° ESE daylight
17 Sep - 17:29:02 10° WNW 17:52:38 49° SW 18:13:11 10° SSE daylight
17 Sep - 20:09:23 10° W 20:20:40 15° WSW 20:30:27 10° SSW daylight
18 Sep - 08:54:39 10° SSW 09:03:36 44° SE 09:20:09 10° ENE visible
18 Sep - 11:18:03 10° WSW 11:31:15 84° SSE 11:55:43 10° E visible
18 Sep - 13:44:36 10° W 14:03:36 88° S 14:30:26 10° ESE daylight
18 Sep - 16:13:33 10° WNW 16:36:57 63° SSW 17:00:29 10° SE daylight
18 Sep - 18:47:32 10° W 19:06:57 28° SW 19:23:18 10° S daylight
19 Sep - 07:45:01 10° S 07:51:43 24° SE 08:02:17 10° E visible
19 Sep - 10:06:16 10° WSW 10:16:59 71° SSE 10:38:06 10° ENE visible
19 Sep - 12:31:31 10° W 12:47:20 90° N 13:13:39 10° E visible
19 Sep - 14:59:08 10° WNW 15:20:35 76° SSW 15:46:22 10° ESE daylight
19 Sep - 17:29:57 10° WNW 17:52:21 42° SW 18:12:43 10° SSE daylight
19 Sep - 20:17:46 10° WSW 20:20:22 10° WSW 20:22:54 10° SW daylight
20 Sep - 08:55:10 10° SW 09:03:53 51° SE 09:20:40 10° ENE visible
20 Sep - 11:19:03 10° WSW 11:31:55 88° S 11:56:07 10° E visible
20 Sep - 13:45:31 10° W 14:04:05 85° SSW 14:30:51 10° ESE daylight
20 Sep - 16:14:21 10° WNW 16:36:52 56° SW 17:00:20 10° SE daylight
20 Sep - 18:49:38 10° W 19:06:33 22° SW 19:21:34 10° S daylight
21 Sep - 07:45:01 10° SSW 07:51:50 31° SE 08:03:22 10° E visible
21 Sep - 10:07:09 10° WSW 10:17:34 78° SSE 10:38:27 10° E visible
21 Sep - 12:32:32 10° W 12:47:59 90° S 13:14:06 10° E visible
21 Sep - 14:59:57 10° WNW 15:20:45 69° SSW 15:46:27 10° SE daylight
21 Sep - 17:31:08 10° W 17:52:01 36° SW 18:11:51 10° SSE daylight
22 Sep - 06:36:58 10° SSE 06:40:30 14° SE 06:44:57 10° E visible
22 Sep - 08:55:52 10° SW 09:04:19 60° SSE 09:21:06 10° ENE visible
22 Sep - 11:20:04 10° W 11:32:38 90° S 11:56:33 10° E visible
22 Sep - 13:46:25 10° W 14:04:30 80° SSW 14:31:07 10° ESE daylight
22 Sep - 16:15:14 10° WNW 16:36:43 49° SW 16:59:54 10° SSE daylight
22 Sep - 18:52:51 10° W 19:06:15 17° SW 19:18:44 10° SSW daylight
